This is the latest recevied weather packets stored in our database for station/object W7TTE. If no packets are shown the sender has not sent any weather packets the latest 10 day(s).
| Time | Temp. | Humidity | Pressure | Rain* | Wind** | Luminosity | Snow |
|---|---|---|---|---|---|---|---|
| 1777650003 | 23.89° C | 39% | 1014.8 hPa | 0 mm | - | 392 W/m² | - |
| 1777649701 | 23.89° C | 38% | 1014.7 hPa | 0 mm | - | 377 W/m² | - |
| 1777649396 | 23.33° C | 39% | 1014.8 hPa | 0 mm | - | 361 W/m² | - |
| 1777649094 | 23.33° C | 40% | 1014.7 hPa | 0 mm | - | 346 W/m² | - |
| 1777648791 | 23.33° C | 39% | 1014.6 hPa | 0 mm | - | 330 W/m² | - |
| 1777648488 | 23.33° C | 39% | 1014.6 hPa | 0 mm | - | 313 W/m² | - |
| 1777648184 | 23.33° C | 39% | 1014.4 hPa | 0 mm | - | 297 W/m² | - |
| 1777647880 | 22.78° C | 40% | 1014.6 hPa | 0 mm | - | 281 W/m² | - |
| 1777647576 | 23.33° C | 39% | 1014.5 hPa | 0 mm | - | 265 W/m² | - |
| 1777647273 | 22.78° C | 39% | 1014.5 hPa | 0 mm | - | 250 W/m² | - |
| 1777646971 | 22.22° C | 39% | 1014.5 hPa | 0 mm | - | 234 W/m² | - |
| 1777646667 | 21.67° C | 38% | 1014.4 hPa | 0 mm | - | 220 W/m² | - |
| 1777646362 | 21.67° C | 38% | 1014.4 hPa | 0 mm | - | 205 W/m² | - |
| 1777646059 | 21.67° C | 37% | 1014 hPa | 0 mm | - | 190 W/m² | - |
| 1777645755 | 20.56° C | 38% | 1014.1 hPa | 0 mm | - | 176 W/m² | - |
| 1777645453 | 20.56° C | 39% | 1014.2 hPa | 0 mm | - | 163 W/m² | - |
| 1777645149 | 20° C | 39% | 1013.9 hPa | 0 mm | - | 149 W/m² | - |
| 1777644845 | 19.44° C | 41% | 1013.8 hPa | 0 mm | - | 135 W/m² | - |
| 1777644543 | 18.33° C | 43% | 1013.8 hPa | 0 mm | - | 123 W/m² | - |
| 1777644239 | 17.78° C | 45% | 1013.8 hPa | 0 mm | - | 47 W/m² | - |
| 1777643935 | 17.22° C | 45% | 1013.7 hPa | 0 mm | - | 41 W/m² | - |
| 1777643633 | 17.22° C | 45% | 1013.5 hPa | 0 mm | - | 39 W/m² | - |
| 1777643330 | 17.22° C | 47% | 1013.7 hPa | 0 mm | - | 37 W/m² | - |
| 1777643026 | 17.22° C | 48% | 1013.4 hPa | 0 mm | - | 36 W/m² | - |
| 1777642723 | 17.22° C | 48% | 1013.6 hPa | 0 mm | - | 34 W/m² | - |
* Rain latest hour (hover to see other rain measurements)
** Current wind speed in m/s (hover to see current wind gust speed)